Location: ??????????
(54.8537°N, 38.8755°E)
Time: 10:09:46
(UTC+00:00)

SR - Visible Passes

Search period start: 07 September 2024 00:00
Search period end: 17 September 2024 00:00
Orbit: 580 x 855 km, 66.7° (Epoch: 06 September)

Date Brightness Start Highest point End Pass type
(mag) Time Alt. Az. Time Alt. Az. Time Alt. Az.
07 Sep ? 17:13:14 10° NW 17:16:14 18° N 17:19:20 10° NE visible
07 Sep ? 18:55:21 10° NNW 18:59:18 31° NNE 19:00:42 26° ENE visible
07 Sep ? 20:37:00 10° NW 20:39:52 39° NW 20:39:52 39° NW visible
08 Sep ? 18:02:32 10° NNW 18:06:05 23° NNE 18:08:59 13° ENE visible
08 Sep ? 19:44:11 10° NW 19:48:09 61° N 19:48:09 61° N visible
08 Sep ? 21:26:20 10° WNW 21:27:19 15° WNW 21:27:19 15° WNW visible
09 Sep ? 17:09:34 10° NW 17:12:45 19° NNE 17:16:02 10° ENE visible
09 Sep ? 18:51:25 10° NW 18:55:37 40° NE 18:56:28 37° ENE visible
09 Sep ? 20:33:11 10° NW 20:35:38 30° WNW 20:35:38 30° WNW visible
10 Sep ? 17:58:38 10° NNW 18:02:28 28° NNE 18:04:47 19° ENE visible
10 Sep ? 19:40:16 10° NW 19:43:57 61° NW 19:43:57 61° NW visible
10 Sep ? 21:22:55 10° WNW 21:23:07 11° WNW 21:23:07 11° WNW visible
11 Sep ? 17:05:45 10° NNW 17:09:10 22° NNE 17:12:45 10° ENE visible
11 Sep ? 18:47:26 10° NW 18:51:50 55° NE 18:52:17 53° ENE visible
11 Sep ? 20:29:24 10° NW 20:31:27 23° WNW 20:31:27 23° WNW visible
12 Sep ? 17:54:38 10° NW 17:58:45 35° NNE 18:00:39 25° ENE visible
12 Sep ? 19:36:20 10° NW 19:39:48 48° WNW 19:39:48 48° WNW visible
13 Sep ? 17:01:48 10° NNW 17:05:31 26° NNE 17:09:00 12° ENE visible
13 Sep ? 18:43:25 10° NW 18:47:56 78° NE 18:48:10 75° E visible
13 Sep ? 20:25:46 10° WNW 20:27:21 17° W 20:27:21 17° W visible
14 Sep ? 17:50:35 10° NW 17:54:56 47° NE 17:56:33 33° E visible
14 Sep ? 19:32:26 10° NW 19:35:44 36° W 19:35:44 36° W visible
15 Sep ? 16:57:45 10° NW 17:01:45 31° NNE 17:04:57 15° E visible
15 Sep ? 18:39:24 10° NW 18:43:56 74° SW 18:44:07 73° SSW visible
15 Sep ? 20:22:25 10° WNW 20:23:18 13° W 20:23:18 13° W visible
16 Sep ? 16:04:50 10° NNW 16:08:26 24° NNE 16:12:13 10° ENE visible
16 Sep ? 17:46:29 10° NW 17:50:59 65° NE 17:52:33 40° ESE visible
16 Sep ? 19:28:37 10° WNW 19:31:44 26° W 19:31:44 26° W visible
